User: anonymous   Login
Location: Newark
(41.0400°S, 62.7845°W)
Time: 02:34:43
(UTC+00:00)
Language:

S-56A Canister/Altair - Orbit

View from above orbital plane
View from above orbital plane
View from above satellite
View from above satellite

Ground track
Ground track

The orbit data is extracted from the following two-line orbital elements,

1 00082U 61004B   21333.55812165 -.00000131  00000-0 -60546-4 0  9998
2 00082  38.8576  35.4864 1174757 121.9368 250.0983 12.26013079872871
Epoch (UTC): 29 November 2021 13:23:41
Eccentricity: 0.1174757
inclination: 38.8576°
perigee height: 633 km
apogee height: 2500 km
right ascension of ascending node: 35.4864°
argument of perigee: 121.9368°
revolutions per day: 12.26013079
mean anomaly at epoch: 250.0983°
orbit number at epoch: 87287

The dashed part of the orbit path shows where the satellite is in the earth's shadow,  

DLR